Location: McCall
(45.0000°N, 116.0000°W)
Time: 18:13:21
(UTC-06:00)

Amateur Radio Satellites - All Passes

Search period start: 28 May 2015 17:43
Search period end: 29 May 2015 17:43
Location: McCall, 45.0000°N, 116.0000°W

Satellite Date Start Highest point End Downlink Frequencies (MHz)
Time Altitude Azimuth
MOZHAYETS 4 28 May 17:45:47 17:49:48 30° 95° (E) 17:53:52
O/OREOS (USA 219) 28 May 17:49:17 17:52:57 23° 307° (NW) 17:56:33 437.305
JAS-2 28 May 17:49:27 17:55:02 28° 266° (W) 18:00:00 435.910
Cubesat XI-IV 28 May 17:50:28 17:54:14 21° 61° (ENE) 17:58:09 437.490
AO-7 28 May 17:56:02 18:03:37 37° 264° (W) 18:11:08 29.400- 29.500
BEESAT 2 28 May 18:15:03 18:18:25 25° 115° (ESE) 18:21:54 435.950
YUBILEINY 28 May 18:33:47 18:41:42 38° 68° (ENE) 18:49:44 435.215
STARS 28 May 18:41:35 18:43:45 13° 300° (WNW) 18:45:44 437.465
Cosmos 2491 28 May 18:43:45 18:49:10 19° 78° (ENE) 18:55:02 435.465 / 435.565
Cosmos 2499 28 May 18:57:02 18:58:56 11° 308° (NW) 19:00:16 435.465 / 435.565
BEESAT 3 28 May 19:00:40 19:04:46 89° 139° (SE) 19:08:55 437.485
CUTE-I 28 May 19:07:20 19:12:39 86° 76° (ENE) 19:18:02 437.470
RS-15 28 May 19:15:04 19:26:38 73° 240° (WSW) 19:38:36 29.354- 29.394
MOZHAYETS 4 28 May 19:23:00 19:27:01 30° 292° (WNW) 19:30:58
Cubesat XI-IV 28 May 19:28:39 19:33:54 63° 258° (WSW) 19:39:14 437.490
CUBESAT XI-V 28 May 19:29:41 19:33:51 31° 95° (E) 19:38:03 437.345
DOVE 4 28 May 19:46:16 19:47:00 10° 56° (NE) 19:48:01 437.250
BEESAT 2 28 May 19:52:30 19:56:23 37° 313° (NW) 20:00:16 435.950
AIST 2 28 May 19:54:14 19:58:29 76° 124° (ESE) 20:02:47 435.215
STRAND 1 28 May 19:56:50 20:00:59 25° 93° (E) 20:05:13 437.568
PRISM 28 May 20:03:24 20:06:59 27° 95° (E) 20:10:36 437.425
HO-68 28 May 20:18:40 20:24:53 34° 61° (ENE) 20:31:14 435.675
GOMX 1 28 May 20:28:07 20:32:47 34° 67° (ENE) 20:37:42 467.674
Cosmos 2504 28 May 20:29:44 20:34:31 19° 60° (ENE) 20:39:32 435.465 / 435.565
YUBILEINY 28 May 20:30:31 20:38:52 52° 270° (W) 20:47:07 435.215
BRITE-PL 28 May 20:35:04 20:40:10 57° 72° (ENE) 20:45:39 437.365/2234.400
Cosmos 2491 28 May 20:36:03 20:44:53 87° 95° (E) 20:53:47 435.465 / 435.565
BEESAT 3 28 May 20:40:49 20:43:23 15° 325° (NW) 20:45:52 437.485
CINEMA 3 28 May 20:44:17 20:47:26 17° 62° (ENE) 20:50:45 145.822/145.860
CUTE-I 28 May 20:50:59 20:53:34 13° 274° (W) 20:55:51 437.470
CANX-2 28 May 21:03:27 21:07:29 43° 72° (ENE) 21:11:32 2200.000
CUTE 1.7 + AOD 2 28 May 21:06:42 21:10:43 42° 72° (ENE) 21:14:45 437.475
CUBESAT XI-V 28 May 21:07:07 21:11:16 31° 292° (WNW) 21:15:22 437.345
ZACube-1 28 May 21:17:21 21:18:33 11° 60° (ENE) 21:19:58 437.345
DOVE 4 28 May 21:18:40 21:23:46 63° 74° (ENE) 21:29:05 437.250
AIST 1 28 May 21:19:03 21:23:11 53° 95° (E) 21:27:23
CUBEBUG 2 28 May 21:22:11 21:25:31 20° 64° (ENE) 21:28:57 437.445
Oscar 11 28 May 21:23:10 21:26:12 19° 65° (ENE) 21:29:20 145.826/435.025
SEEDS 28 May 21:25:59 21:30:08 56° 73° (ENE) 21:34:16 437.485
RS-15 28 May 21:29:54 21:37:23 18° 260° (W) 21:44:12 29.354- 29.394
AIST 2 28 May 21:34:33 21:37:35 18° 323° (NW) 21:40:33 435.215
STRAND 1 28 May 21:35:31 21:40:25 45° 291° (WNW) 21:45:18 437.568
COMPASS 1 28 May 21:35:58 21:40:04 58° 74° (ENE) 21:44:12 437.405
PRISM 28 May 21:38:49 21:42:24 28° 292° (WNW) 21:45:56 437.425
AAUSAT CUBESAT 2 28 May 21:46:19 21:50:27 65° 75° (ENE) 21:54:35 437.432
M-CUBED/EXP-1 PRIME 28 May 21:51:17 21:54:32 53° 292° (WNW) 21:57:46 437.505
AUBIESAT-1 28 May 21:57:29 22:00:43 51° 292° (WNW) 22:03:58 437.475
DELFI C3 28 May 22:00:29 22:04:01 31° 70° (ENE) 22:07:36 145.870
UWE-3 28 May 22:04:04 22:08:22 38° 70° (ENE) 22:12:41 435.000/436.395/437.385
HO-68 28 May 22:05:22 22:12:23 54° 259° (W) 22:19:25 435.675
GOMX 1 28 May 22:06:01 22:10:51 36° 266° (W) 22:15:50 467.674
FUNcube-1 28 May 22:08:49 22:12:53 33° 69° (ENE) 22:16:58 145.935
BRITE-PL 28 May 22:15:08 22:19:09 21° 272° (W) 22:23:13 437.365/2234.400
CINEMA 3 28 May 22:19:07 22:24:08 70° 259° (W) 22:29:11 145.822/145.860
AISAT 28 May 22:20:17 22:22:15 13° 60° (ENE) 22:24:26 437.250
Cosmos 2504 28 May 22:21:46 22:29:01 84° 263° (W) 22:36:14 435.465 / 435.565
HUMSAT D 28 May 22:28:03 22:31:30 25° 67° (ENE) 22:35:03 437.325/437.525
Cosmos 2491 28 May 22:36:21 22:43:09 23° 301° (WNW) 22:49:40 435.465 / 435.565
CANX-2 28 May 22:40:36 22:43:40 18° 269° (W) 22:46:35 2200.000
CUTE 1.7 + AOD 2 28 May 22:43:47 22:46:52 19° 269° (W) 22:49:50 437.475
UKube-1 28 May 22:47:44 22:51:45 39° 69° (ENE) 22:55:49 .
ZACube-1 28 May 22:49:39 22:54:15 85° 76° (ENE) 22:58:50 437.345
50 SAT 28 May 22:55:25 22:58:43 26° 68° (ENE) 23:02:04 437.505
CUBEBUG 2 28 May 22:57:09 23:01:51 55° 261° (W) 23:06:31 437.445
Oscar 11 28 May 22:57:55 23:02:06 45° 262° (W) 23:06:16 145.826/435.025
DOVE 4 28 May 22:58:22 23:02:02 19° 272° (W) 23:05:37 437.250
AIST 1 28 May 22:58:41 23:01:16 15° 294° (WNW) 23:03:44
DX 1 28 May 22:59:19 23:03:34 55° 72° (ENE) 23:07:53 434.975-435.025
SEEDS 28 May 23:04:00 23:06:20 14° 271° (W) 23:08:29 437.485
GONETS M04 28 May 23:04:10 23:08:41 15° 51° (NE) 23:13:41
UNISAT 6 28 May 23:10:31 23:12:13 12° 87° (E) 23:14:08 437.425
COMPASS 1 28 May 23:14:02 23:16:12 13° 272° (W) 23:18:09 437.405
CUBEBUG 1 28 May 23:14:49 23:18:07 22° 65° (ENE) 23:21:34 437.445
VELOX 1 28 May 23:21:37 23:25:52 47° 71° (ENE) 23:30:12 145.980
AAUSAT CUBESAT 2 28 May 23:24:54 23:26:34 12° 273° (W) 23:28:01 437.432
ESTCUBE 1 28 May 23:32:57 23:37:04 37° 69° (ENE) 23:41:14 437.505/2401.250
DELFI C3 28 May 23:35:55 23:39:11 23° 267° (W) 23:42:24 145.870
POPSAT HIP 1 28 May 23:39:18 23:40:22 11° 86° (E) 23:41:42 437.405
DUCHIFAT 1 28 May 23:39:40 23:40:32 11° 86° (E) 23:41:39 145.980
UWE-3 28 May 23:41:05 23:45:00 25° 267° (W) 23:48:50 435.000/436.395/437.385
FUNcube-1 28 May 23:45:16 23:49:14 28° 266° (W) 23:53:08 145.935
DANDE 28 May 23:45:35 23:52:07 28° 60° (ENE) 23:57:43 436.750
SPROUT 28 May 23:46:42 23:48:54 14° 62° (ENE) 23:51:17 437.525
ANTELSAT 28 May 23:52:12 23:56:10 33° 96° (E) 00:00:06 437.575/2403.000
BUGSAT 1 28 May 23:53:19 23:54:01 10° 86° (E) 23:54:57 437.445
AISAT 28 May 23:53:49 23:58:17 78° 258° (WSW) 00:02:47 437.250
TISAT 1 29 May 00:01:31 00:03:49 15° 63° (ENE) 00:06:18 437.305
CUSAT 1 29 May 00:02:42 00:09:31 41° 67° (ENE) 00:14:56 437.405
HUMSAT D 29 May 00:03:10 00:07:08 34° 264° (W) 00:11:03 437.325/437.525
ISS 29 May 00:08:37 00:11:46 52° 145° (SE) 00:14:58 145.825
Cosmos 2504 29 May 00:17:36 00:21:19 14° 282° (WNW) 00:24:37 435.465 / 435.565
QB50P1 29 May 00:20:56 00:24:45 31° 95° (E) 00:28:34 145.935-145.965
TIGRISAT 29 May 00:23:46 00:28:09 71° 102° (ESE) 00:32:26 435.000
POLYITAN 1 29 May 00:24:05 00:28:00 34° 96° (E) 00:31:54 437.675
UKube-1 29 May 00:24:41 00:28:03 21° 267° (W) 00:31:21 .
50 SAT 29 May 00:29:53 00:33:22 27° 265° (W) 00:36:48 437.505
ZACube-1 29 May 00:30:05 00:31:18 11° 275° (W) 00:32:14 437.345
DX 1 29 May 00:37:33 00:40:13 15° 270° (W) 00:42:45 434.975-435.025
O/OREOS (USA 219) 29 May 00:38:41 00:41:22 16° 48° (NE) 00:44:10 437.305
PCSat 29 May 00:39:22 00:43:25 23° 108° (ESE) 00:47:38 145.827
UNISAT 6 29 May 00:45:13 00:49:36 67° 286° (WNW) 00:53:51 437.425
CUBEBUG 1 29 May 00:50:09 00:54:16 40° 263° (W) 00:58:26 437.445
NANOSAT C BR1 29 May 00:51:10 00:55:26 65° 101° (E) 00:59:40 145.865
GONETS M04 29 May 00:59:00 01:07:47 67° 77° (ENE) 01:16:27
VELOX 1 29 May 00:59:35 01:02:44 18° 269° (W) 01:05:47 145.980
QB50P2 29 May 01:00:49 01:05:09 86° 108° (ESE) 01:09:24 145.880/145.840
ESTCUBE 1 29 May 01:10:27 01:14:05 23° 267° (W) 01:17:38 437.505/2401.250
POPSAT HIP 1 29 May 01:12:34 01:16:52 74° 285° (WNW) 01:21:06 437.405
DUCHIFAT 1 29 May 01:12:41 01:16:58 75° 285° (WNW) 01:21:12 145.980
SPROUT 29 May 01:20:13 01:24:31 67° 259° (WSW) 01:28:51 437.525
BUGSAT 1 29 May 01:25:49 01:30:07 77° 283° (WNW) 01:34:22 437.445
DANDE 29 May 01:28:26 01:36:12 65° 265° (W) 01:42:13 436.750
ANTELSAT 29 May 01:29:14 01:32:50 25° 294° (WNW) 01:36:19 437.575/2403.000
VERMONT LUNAR 29 May 01:29:44 01:30:34 11° 152° (SSE) 01:31:28 437.305
TISAT 1 29 May 01:34:57 01:39:09 61° 259° (W) 01:43:25 437.305
BEESAT 3 29 May 01:40:38 01:43:15 16° 36° (NE) 01:45:53 437.485
ISS 29 May 01:45:17 01:48:18 34° 343° (NNW) 01:51:21 145.825
CUSAT 1 29 May 01:45:42 01:52:06 36° 273° (W) 01:57:08 437.405
ITUPSAT 1 29 May 01:53:18 01:57:37 36° 68° (ENE) 02:02:00 437.325
QB50P1 29 May 01:56:55 02:00:32 26° 293° (WNW) 02:04:03 145.935-145.965
BEESAT 29 May 01:59:23 02:03:50 42° 69° (ENE) 02:08:20 436.000
POLYITAN 1 29 May 02:00:16 02:03:46 24° 293° (WNW) 02:07:11 437.675
TIGRISAT 29 May 02:02:11 02:04:23 13° 299° (WNW) 02:06:23 435.000
SWISSCUBE 29 May 02:08:03 02:12:40 55° 72° (ENE) 02:17:20 437.505
O/OREOS (USA 219) 29 May 02:16:53 02:21:21 71° 249° (WSW) 02:25:48 437.305
PCSat 29 May 02:21:07 02:26:28 59° 306° (NW) 02:31:51 145.827
NANOSAT C BR1 29 May 02:28:29 02:30:48 14° 298° (WNW) 02:32:57 145.865
STARS 29 May 02:29:40 02:30:34 11° 59° (ENE) 02:31:42 437.465
BEESAT 2 29 May 02:31:52 02:35:36 32° 45° (NE) 02:39:18 435.950
AIST 2 29 May 02:36:42 02:39:20 16° 34° (NE) 02:42:02 435.215
QB50P2 29 May 02:39:06 02:40:26 11° 300° (WNW) 02:41:33 145.880/145.840
Cosmos 2499 29 May 02:44:11 02:51:07 57° 76° (ENE) 02:58:10 435.465 / 435.565
Oscar 19 29 May 02:53:42 02:58:38 44° 98° (E) 03:03:33 437.125/150
GONETS M04 29 May 02:56:45 03:04:02 29° 277° (W) 03:11:01
KKS-1 29 May 03:03:52 03:07:54 34° 69° (ENE) 03:12:01 437.445
VERMONT LUNAR 29 May 03:04:20 03:07:10 28° 168° (SSE) 03:10:00 437.305
ITAMSAT 1 29 May 03:13:28 03:17:17 21° 91° (E) 03:21:16 435.822/435.867
DANDE 29 May 03:15:10 03:17:38 12° 287° (WNW) 03:19:30 436.750
BEESAT 3 29 May 03:17:40 03:21:47 81° 236° (WSW) 03:25:49 437.485
ISS 29 May 03:22:34 03:25:19 24° 3° (N) 03:28:05 145.825
SO-50 29 May 03:27:56 03:32:16 39° 117° (ESE) 03:36:48 436.795
ITUPSAT 1 29 May 03:31:32 03:35:36 27° 266° (W) 03:39:37 437.325
BEESAT 29 May 03:38:03 03:41:53 23° 267° (W) 03:45:38 436.000
SWISSCUBE 29 May 03:47:39 03:50:56 18° 270° (W) 03:54:04 437.505
PHONESAT 2.4 29 May 04:00:35 04:03:34 27° 164° (SSE) 04:06:34 2401.200-2431.200
STARS 29 May 04:01:53 04:06:20 85° 78° (ENE) 04:10:50 437.465
Gurwin Techsat 1B 29 May 04:03:47 04:09:01 56° 100° (E) 04:14:15 435.225
AO-7 29 May 04:04:20 04:07:48 13° 83° (E) 04:11:54 29.400- 29.500
PCSat 29 May 04:08:05 04:11:08 15° 329° (NNW) 04:14:03 145.827
BEESAT 2 29 May 04:10:01 04:13:39 30° 244° (WSW) 04:17:11 435.950
AIST 2 29 May 04:14:18 04:18:33 90° 286° (WNW) 04:22:44 435.215
Oscar 19 29 May 04:33:31 04:37:48 26° 296° (WNW) 04:41:58 437.125/150
Cosmos 2499 29 May 04:38:07 04:43:51 27° 275° (W) 04:49:29 435.465 / 435.565
KKS-1 29 May 04:40:50 04:44:37 26° 266° (W) 04:48:21 437.445
VERMONT LUNAR 29 May 04:41:01 04:44:00 35° 184° (S) 04:46:59 437.305
MOZHAYETS 4 29 May 04:49:35 04:53:44 36° 69° (ENE) 04:57:56
Cosmos 2491 29 May 04:51:24 04:52:51 11° 45° (NE) 04:54:55 435.465 / 435.565
ITAMSAT 1 29 May 04:52:04 04:57:11 55° 289° (WNW) 05:02:16 435.822/435.867
JAS-2 29 May 04:55:20 04:59:52 31° 95° (E) 05:04:36 435.910
ISS 29 May 04:59:02 05:02:13 50° 23° (NNE) 05:05:25 145.825
SO-50 29 May 05:08:33 05:12:53 34° 317° (NW) 05:17:21 436.795
HORYU 2 29 May 05:22:23 05:26:46 56° 101° (E) 05:31:06 437.375
PHONESAT 2.4 29 May 05:38:02 05:41:19 39° 181° (S) 05:44:35 2401.200-2431.200
STARS 29 May 05:42:54 05:43:31 10° 274° (W) 05:43:51 437.465
Gurwin Techsat 1B 29 May 05:44:33 05:48:40 23° 298° (WNW) 05:52:38 435.225
AO-7 29 May 05:54:03 06:02:24 69° 105° (ESE) 06:10:45 29.400- 29.500
VERMONT LUNAR 29 May 06:18:22 06:20:44 19° 201° (SSW) 06:23:05 437.305
MOZHAYETS 4 29 May 06:27:15 06:31:04 25° 267° (W) 06:34:49
CUBESAT XI-V 29 May 06:34:58 06:39:11 37° 69° (ENE) 06:43:28 437.345
ISS 29 May 06:35:40 06:38:31 28° 221° (SW) 06:41:21 145.825
JAS-2 29 May 06:40:26 06:45:07 35° 293° (WNW) 06:49:51 435.910
Cosmos 2491 29 May 06:44:12 06:52:42 49° 72° (ENE) 07:01:11 435.465 / 435.565
SO-50 29 May 06:53:51 06:54:59 11° 340° (NNW) 06:56:01 436.795
PRISM 29 May 06:55:34 06:59:00 27° 67° (ENE) 07:02:30 437.425
HORYU 2 29 May 07:00:07 07:03:01 17° 297° (WNW) 07:05:46 437.375
M-CUBED/EXP-1 PRIME 29 May 07:07:10 07:10:25 24° 64° (ENE) 07:13:33 437.505
AUBIESAT-1 29 May 07:12:58 07:16:11 24° 64° (ENE) 07:19:17 437.475
STRAND 1 29 May 07:14:28 07:19:14 43° 69° (ENE) 07:24:05 437.568
PHONESAT 2.4 29 May 07:16:07 07:19:01 25° 197° (SSW) 07:21:54 2401.200-2431.200
CUTE-I 29 May 07:22:49 07:27:27 29° 94° (E) 07:32:08 437.470
AIST 1 29 May 07:24:52 07:27:46 17° 67° (ENE) 07:30:48
RS-15 29 May 07:36:48 07:40:47 13° 97° (E) 07:45:45 29.354- 29.394
YUBILEINY 29 May 07:37:25 07:45:17 41° 87° (E) 07:53:17 435.215
Cubesat XI-IV 29 May 07:43:53 07:49:01 45° 98° (E) 07:54:11 437.490
AO-7 29 May 07:47:32 07:54:43 32° 305° (NW) 08:01:44 29.400- 29.500
CUBESAT XI-V 29 May 08:12:57 08:16:45 25° 267° (W) 08:20:31 437.345
PRISM 29 May 08:30:52 08:34:25 27° 265° (W) 08:37:56 437.425
BRITE-PL 29 May 08:39:12 08:42:58 19° 86° (E) 08:46:47 437.365/2234.400
Cosmos 2491 29 May 08:41:23 08:49:30 41° 273° (W) 08:57:24 435.465 / 435.565
M-CUBED/EXP-1 PRIME 29 May 08:41:31 08:45:13 30° 257° (WSW) 08:48:37 437.505
AUBIESAT-1 29 May 08:47:17 08:50:54 30° 257° (WSW) 08:54:16 437.475
STRAND 1 29 May 08:54:24 08:58:39 26° 267° (W) 09:02:49 437.568
AIST 1 29 May 09:01:31 09:05:45 47° 266° (W) 09:09:58
CUTE-I 29 May 09:02:38 09:07:40 41° 292° (WNW) 09:12:38 437.470
Cosmos 2504 29 May 09:12:50 09:16:47 15° 79° (E) 09:21:06 435.465 / 435.565
DOVE 4 29 May 09:17:42 09:20:40 16° 86° (E) 09:23:43 437.250
PCSat 29 May 09:24:00 09:28:48 32° 45° (NE) 09:33:39 145.827
Cubesat XI-IV 29 May 09:24:25 09:28:56 28° 296° (WNW) 09:33:23 437.490
HO-68 29 May 09:31:13 09:37:05 27° 92° (E) 09:43:04 435.675
YUBILEINY 29 May 09:33:35 09:42:02 49° 288° (WNW) 09:50:25 435.215
RS-15 29 May 09:40:25 09:51:01 64° 117° (ESE) 10:02:00 29.354- 29.394
TIGRISAT 29 May 09:51:34 09:52:28 11° 59° (ENE) 09:53:35 435.000
GOMX 1 29 May 10:05:45 10:11:07 68° 100° (E) 10:16:10 467.674
UNISAT 6 29 May 10:10:57 10:13:51 17° 63° (ENE) 10:16:53 437.425
CINEMA 3 29 May 10:13:08 10:16:59 25° 92° (E) 10:20:45 145.822/145.860
BRITE-PL 29 May 10:16:27 10:22:05 68° 286° (WNW) 10:27:26 437.365/2234.400
SO-50 29 May 10:17:41 10:20:38 16° 29° (NNE) 10:23:40 436.795
CANX-2 29 May 10:22:20 10:26:33 66° 102° (ESE) 10:30:43 2200.000
CUTE 1.7 + AOD 2 29 May 10:25:28 10:29:41 65° 101° (E) 10:33:51 437.475
DUCHIFAT 1 29 May 10:34:03 10:35:36 12° 61° (ENE) 10:37:20 145.980
POPSAT HIP 1 29 May 10:34:09 10:35:51 12° 61° (ENE) 10:37:45 437.405
ZACube-1 29 May 10:38:13 10:40:22 14° 88° (E) 10:42:40 437.345
Oscar 11 29 May 10:43:27 10:47:08 27° 94° (E) 10:50:50 145.826/435.025
SEEDS 29 May 10:43:55 10:48:08 85° 102° (ESE) 10:52:18 437.485
BUGSAT 1 29 May 10:45:46 10:46:44 11° 60° (ENE) 10:47:54 437.445
CUBEBUG 2 29 May 10:47:01 10:50:48 27° 93° (E) 10:54:30 437.445
ANTELSAT 29 May 10:52:41 10:57:02 40° 70° (ENE) 11:01:22 437.575/2403.000
COMPASS 1 29 May 10:52:53 10:57:04 86° 103° (ESE) 11:01:13 437.405
DOVE 4 29 May 10:53:57 10:59:03 66° 286° (WNW) 11:03:49 437.250
Cosmos 2504 29 May 11:00:56 11:09:11 79° 96° (E) 11:16:53 435.465 / 435.565
AAUSAT CUBESAT 2 29 May 11:02:45 11:06:54 86° 284° (WNW) 11:11:02 437.432
PCSat 29 May 11:07:14 11:12:27 47° 245° (WSW) 11:17:36 145.827
DELFI C3 29 May 11:12:20 11:16:06 39° 97° (E) 11:19:54 145.870
QB50P1 29 May 11:15:32 11:19:17 31° 69° (ENE) 11:23:06 145.935-145.965
HO-68 29 May 11:18:17 11:25:21 63° 292° (WNW) 11:32:21 435.675
POLYITAN 1 29 May 11:18:53 11:22:46 34° 69° (ENE) 11:26:43 437.675
TIGRISAT 29 May 11:23:51 11:28:32 80° 74° (ENE) 11:33:11 435.000
UWE-3 29 May 11:28:22 11:32:42 60° 100° (E) 11:36:54 435.000/436.395/437.385
FUNcube-1 29 May 11:31:13 11:35:24 49° 99° (E) 11:39:30 145.935
YUBILEINY 29 May 11:40:04 11:41:47 10° 315° (NW) 11:42:53 435.215
AISAT 29 May 11:43:36 11:46:35 18° 90° (E) 11:49:42 437.250
GOMX 1 29 May 11:44:55 11:48:41 19° 299° (WNW) 11:52:10 467.674
HUMSAT D 29 May 11:45:11 11:48:56 32° 96° (E) 11:52:39 437.325/437.525
NANOSAT C BR1 29 May 11:45:18 11:49:31 62° 74° (ENE) 11:53:47 145.865
UNISAT 6 29 May 11:45:35 11:50:14 62° 259° (W) 11:54:50 437.425
CINEMA 3 29 May 11:49:58 11:54:19 36° 291° (WNW) 11:58:26 145.822/145.860
RS-15 29 May 11:53:30 12:04:00 48° 323° (NW) 12:14:50 29.354- 29.394
QB50P2 29 May 11:55:18 11:59:35 83° 76° (ENE) 12:03:55 145.880/145.840
SO-50 29 May 11:57:15 12:02:12 63° 51° (NE) 12:07:04 436.795
BRITE-PL 29 May 11:57:25 11:59:36 12° 304° (NW) 12:01:28 437.365/2234.400
CANX-2 29 May 11:59:52 12:02:00 13° 298° (WNW) 12:03:57 2200.000
CUTE 1.7 + AOD 2 29 May 12:02:56 12:05:08 14° 297° (WNW) 12:07:10 437.475
50 SAT 29 May 12:04:03 12:07:24 28° 95° (E) 12:10:46 437.505
DUCHIFAT 1 29 May 12:06:34 12:10:51 79° 257° (WSW) 12:15:10 145.980
POPSAT HIP 1 29 May 12:06:53 12:11:10 77° 256° (WSW) 12:15:31 437.405
UKube-1 29 May 12:08:56 12:13:13 54° 100° (E) 12:17:29 .
GONETS M04 29 May 12:11:15 12:15:10 14° 75° (ENE) 12:19:43
ZACube-1 29 May 12:12:56 12:17:13 58° 287° (WNW) 12:21:21 437.345
BUGSAT 1 29 May 12:17:24 12:21:35 86° 260° (W) 12:25:51 437.445
Oscar 11 29 May 12:19:31 12:23:19 30° 291° (WNW) 12:27:02 145.826/435.025
DX 1 29 May 12:21:39 12:26:05 80° 102° (ESE) 12:30:29 434.975-435.025
SEEDS 29 May 12:22:20 12:23:21 11° 299° (WNW) 12:24:08 437.485
CUBEBUG 2 29 May 12:23:35 12:27:31 30° 292° (WNW) 12:31:16 437.445
ANTELSAT 29 May 12:30:11 12:33:59 23° 268° (W) 12:37:38 437.575/2403.000
COMPASS 1 29 May 12:31:22 12:32:09 10° 299° (WNW) 12:32:43 437.405
DOVE 4 29 May 12:35:23 12:35:50 10° 304° (NW) 12:35:59 437.250
CUBEBUG 1 29 May 12:36:56 12:40:55 32° 96° (E) 12:44:56 437.445
Oscar 19 29 May 12:36:58 12:38:55 12° 57° (ENE) 12:41:05 437.125/150
VELOX 1 29 May 12:46:20 12:50:51 74° 102° (ESE) 12:55:19 145.980
DELFI C3 29 May 12:48:05 12:50:59 19° 294° (WNW) 12:53:48 145.870
QB50P1 29 May 12:51:31 12:55:10 26° 266° (W) 12:58:47 145.935-145.965
POLYITAN 1 29 May 12:55:12 12:58:46 24° 267° (W) 13:02:16 437.675
DANDE 29 May 12:56:35 13:02:54 31° 84° (E) 13:10:06 436.750
Cosmos 2504 29 May 12:57:11 13:03:28 23° 297° (WNW) 13:09:13 435.465 / 435.565
ESTCUBE 1 29 May 12:59:55 13:04:26 63° 101° (E) 13:08:57 437.505/2401.250
TIGRISAT 29 May 13:04:03 13:05:55 12° 274° (W) 13:07:30 435.000
SPROUT 29 May 13:05:48 13:08:51 19° 91° (E) 13:11:59 437.525
UWE-3 29 May 13:06:09 13:08:48 15° 298° (WNW) 13:11:14 435.000/436.395/437.385
HO-68 29 May 13:08:07 13:11:50 15° 312° (NW) 13:15:15 435.675
CUSAT 1 29 May 13:08:18 13:15:28 45° 90° (E) 13:23:19 437.405
FUNcube-1 29 May 13:08:27 13:11:23 18° 296° (WNW) 13:14:09 145.935
TISAT 1 29 May 13:18:25 13:21:20 18° 91° (E) 13:24:21 437.305
AISAT 29 May 13:19:08 13:23:31 50° 288° (WNW) 13:27:50 437.250
HUMSAT D 29 May 13:21:11 13:24:34 24° 293° (WNW) 13:27:50 437.325/437.525
NANOSAT C BR1 29 May 13:23:42 13:25:51 13° 272° (W) 13:27:48 145.865
SO-50 29 May 13:38:43 13:42:21 20° 248° (WSW) 13:45:49 436.795
50 SAT 29 May 13:38:52 13:42:02 24° 292° (WNW) 13:45:06 437.505
UKube-1 29 May 13:46:05 13:48:59 17° 297° (WNW) 13:51:44 .
Gurwin Techsat 1B 29 May 13:49:37 13:52:47 17° 59° (ENE) 13:56:08 435.225
DX 1 29 May 13:59:49 14:01:46 13° 300° (WNW) 14:03:33 434.975-435.025
GONETS M04 29 May 14:01:49 14:10:34 71° 94° (E) 14:19:23
SWISSCUBE 29 May 14:08:27 14:10:10 12° 86° (E) 14:12:08 437.505
RS-15 29 May 14:10:50 14:20:02 28° 356° (N) 14:29:32 29.354- 29.394
Oscar 19 29 May 14:12:19 14:17:30 78° 74° (ENE) 14:22:44 437.125/150
CUBEBUG 1 29 May 14:13:23 14:17:12 28° 293° (WNW) 14:20:57 437.445
VELOX 1 29 May 14:24:32 14:26:52 14° 299° (WNW) 14:29:02 145.980
ITAMSAT 1 29 May 14:33:06 14:37:50 39° 68° (ENE) 14:42:39 435.822/435.867
DANDE 29 May 14:37:59 14:45:33 67° 285° (WNW) 14:54:08 436.750
ESTCUBE 1 29 May 14:38:03 14:40:52 16° 298° (WNW) 14:43:31 437.505/2401.250
SPROUT 29 May 14:41:02 14:45:12 43° 289° (WNW) 14:49:17 437.525
CUSAT 1 29 May 14:50:44 14:58:13 47° 291° (WNW) 15:06:10 437.405
TISAT 1 29 May 14:53:17 14:57:22 44° 289° (WNW) 15:01:24 437.305
AO-7 29 May 15:04:40 15:11:13 28° 53° (NE) 15:17:59 29.400- 29.500
JAS-2 29 May 15:10:42 15:14:59 20° 62° (ENE) 15:19:09 435.910
Cosmos 2499 29 May 15:22:43 15:30:09 45° 90° (E) 15:37:10 435.465 / 435.565
Gurwin Techsat 1B 29 May 15:26:52 15:32:11 79° 257° (WSW) 15:37:33 435.225
ITUPSAT 1 29 May 15:29:06 15:33:54 67° 102° (ESE) 15:38:40 437.325
BEESAT 29 May 15:34:55 15:39:44 77° 103° (ESE) 15:44:31 436.000
SWISSCUBE 29 May 15:43:55 15:48:44 81° 284° (WNW) 15:53:31 437.505
STARS 29 May 15:51:23 15:53:30 14° 88° (E) 15:55:50 437.465
Oscar 19 29 May 15:54:41 15:57:34 14° 273° (W) 16:00:11 437.125/150
GONETS M04 29 May 16:00:50 16:08:21 29° 297° (WNW) 16:15:39
ITAMSAT 1 29 May 16:12:56 16:17:27 29° 266° (W) 16:21:56 435.822/435.867
HORYU 2 29 May 16:22:18 16:26:45 67° 73° (ENE) 16:31:12 437.375
DANDE 29 May 16:25:25 16:30:45 18° 309° (NW) 16:35:57 436.750
RS-15 29 May 16:26:11 16:36:36 39° 29° (NNE) 16:47:34 29.354- 29.394
KKS-1 29 May 16:29:04 16:33:28 52° 100° (E) 16:37:50 437.445
O/OREOS (USA 219) 29 May 16:30:46 16:35:18 87° 297° (WNW) 16:39:49 437.305
CUSAT 1 29 May 16:40:21 16:43:22 12° 314° (NW) 16:45:54 437.405
JAS-2 29 May 16:53:14 16:59:45 72° 257° (WSW) 17:05:31 435.910
AO-7 29 May 16:54:59 17:03:18 80° 253° (WSW) 17:11:41 29.400- 29.500
ITUPSAT 1 29 May 17:08:14 17:11:19 17° 299° (WNW) 17:14:14 437.325
Gurwin Techsat 1B 29 May 17:12:14 17:13:11 10° 276° (W) 17:13:46 435.225
BEESAT 29 May 17:14:21 17:17:02 15° 300° (WNW) 17:19:31 436.000
BEESAT 3 29 May 17:15:12 17:16:11 11° 110° (ESE) 17:17:24 437.485
Cosmos 2499 29 May 17:16:05 17:23:26 39° 289° (WNW) 17:30:15 435.465 / 435.565
SWISSCUBE 29 May 17:24:16 17:25:53 11° 302° (WNW) 17:27:16 437.505
STARS 29 May 17:26:04 17:30:29 64° 287° (WNW) 17:34:50 437.465
Cubesat XI-IV 29 May 17:31:11 17:33:49 14° 57° (ENE) 17:36:40 437.490
